Racine, WI

9:06 PM CDT on June 24, 2017 (GMT -0500)
Batten

Weather History for KRAC - February, 2014

Change the Weather History Date:

Thursday, February 20, 2014

  Actual Average Record
Temperature  
Mean Temperature 38 °F -  
Max Temperature 42 °F 33 °F 54 °F (2017)
Min Temperature 33 °F 21 °F -9 °F (1966)
Degree Days  
Heating Degree Days 28    
Moisture  
Dew Point 33 °F    
Average Humidity 92    
Maximum Humidity 100    
Minimum Humidity 79    
Precipitation  
Precipitation 0.84 in - - ()
Sea Level Pressure  
Sea Level Pressure 29.56 in    
Wind  
Wind Speed 13 mph (ESE)    
Max Wind Speed 31 mph    
Max Gust Speed 47 mph    
Visibility 3 miles    
Events Fog , Rain , Snow , Thunderstorm    
Averages and records for this station are not official NWS values.
T = Trace of Precipitation, MM = Missing Value Source: NWS Daily Summary

Daily Weather History Graph

Daily Weather History Graph

Search for Another Location

Airport or City:

Trip Planner

Search our weather history database for the weather conditions in past years. The results will help you decide how hot, cold, wet, or windy it might be!

Date:

Astronomy

Feb. 20, 2014 Rise Set
Actual Time 6:41 AM CST 5:29 PM CST
Civil Twilight 6:12 AM CST 5:58 PM CST
Nautical Twilight 5:39 AM CST 6:31 PM CST
Astronomical Twilight 5:06 AM CST 7:03 PM CST
Moon 11:32 PM CST (2/20) 9:15 AM CST (2/20)
Length of Visible Light 11h 45m
Length of Day
10h 48m
Waning Gibbous, 70% of the Moon is Illuminated
Feb 20
Waning Gibbous
Feb 22
Last Quarter
Mar 1
New
Mar 8
First Quarter
Mar 16
Full

Hourly Weather History & Observations

Time (CST) Temp. Windchill Dew Point Humidity Pressure Visibility Wind Dir Wind Speed Gust Speed Precip Events Conditions
12:53 AM 34.0 °F 26.6 °F 28.9 °F 82% 29.94 in 4.0 mi South 9.2 mph - N/A   Haze
1:53 AM 34.0 °F 26.6 °F 30.0 °F 85% 29.93 in 4.0 mi South 9.2 mph - N/A   Mostly Cloudy
2:53 AM 34.0 °F 26.0 °F 30.0 °F 85% 29.87 in 4.0 mi SE 10.4 mph - N/A   Overcast
3:53 AM 34.0 °F 26.0 °F 30.0 °F 85% 29.87 in 5.0 mi SSE 10.4 mph - 0.00 in   Overcast
4:36 AM 34.0 °F 25.5 °F 30.9 °F 89% 29.84 in 2.5 mi SSE 11.5 mph - 0.02 in Snow Light Snow
4:44 AM 34.0 °F 26.0 °F 30.9 °F 89% 29.84 in 1.0 mi SSE 10.4 mph - 0.05 in Snow Light Snow
4:53 AM 33.1 °F 25.5 °F 30.9 °F 92% 29.85 in 1.2 mi SE 9.2 mph - 0.11 in Rain Heavy Rain
5:49 AM 33.8 °F 28.6 °F 32.0 °F 93% 29.81 in 0.5 mi ESE 5.8 mph - 0.26 in Fog , Snow Snow
5:53 AM 33.1 °F 27.7 °F 32.0 °F 96% 29.83 in 0.5 mi East 5.8 mph - 0.29 in Fog , Snow Snow
6:03 AM 33.1 °F 26.9 °F 32.0 °F 96% 29.80 in 0.8 mi East 6.9 mph - 0.04 in Snow Light Snow
6:11 AM 33.1 °F 26.1 °F 32.0 °F 96% 29.79 in 0.8 mi East 8.1 mph - 0.07 in Snow Light Snow
6:32 AM 33.1 °F 25.5 °F 32.0 °F 96% 29.77 in 1.5 mi East 9.2 mph - 0.12 in Snow Light Snow
6:38 AM 33.1 °F 26.1 °F 32.0 °F 96% 29.76 in 2.0 mi East 8.1 mph - 0.13 in Snow Light Snow
6:53 AM 34.0 °F 26.6 °F 32.0 °F 92% 29.78 in 3.0 mi East 9.2 mph - 0.15 in Snow Light Snow
7:32 AM 35.1 °F 25.5 °F 32.0 °F 89% 29.76 in 2.5 mi ESE 15.0 mph - 0.01 in Rain Light Rain
7:40 AM 35.1 °F 25.5 °F 32.0 °F 89% 29.75 in 3.0 mi East 15.0 mph - 0.02 in Rain Light Rain
7:53 AM 34.0 °F 24.2 °F 30.9 °F 89% 29.77 in 3.0 mi East 15.0 mph - 0.02 in Rain Light Rain
8:08 AM 34.0 °F 25.0 °F 30.9 °F 89% 29.76 in 2.0 mi East 12.7 mph - 0.00 in Rain Light Rain
8:17 AM 34.0 °F 25.0 °F 30.9 °F 89% 29.75 in 1.2 mi East 12.7 mph - 0.00 in Rain Light Rain
8:37 AM 34.0 °F 24.6 °F 32.0 °F 92% 29.74 in 2.0 mi East 13.8 mph - 0.00 in   Overcast
8:53 AM 34.0 °F 24.2 °F 30.9 °F 89% 29.75 in 3.0 mi East 15.0 mph 21.9 mph 0.00 in   Overcast
9:09 AM 34.0 °F 23.4 °F 32.0 °F 92% 29.70 in 2.5 mi East 17.3 mph - N/A   Overcast
9:53 AM 34.0 °F 23.0 °F 30.9 °F 89% 29.68 in 2.5 mi East 18.4 mph - N/A   Overcast
10:01 AM 34.0 °F 23.4 °F 30.9 °F 89% 29.65 in 3.0 mi ENE 17.3 mph - N/A   Overcast
10:25 AM 34.0 °F 24.2 °F 30.9 °F 89% 29.64 in 4.0 mi East 15.0 mph - N/A   Overcast
10:32 AM 34.0 °F 23.8 °F 30.9 °F 89% 29.63 in 4.0 mi East 16.1 mph 23.0 mph N/A   Overcast
10:53 AM 34.0 °F 24.6 °F 32.0 °F 92% 29.64 in 4.0 mi East 13.8 mph 24.2 mph N/A   Overcast
11:53 AM 34.0 °F 23.8 °F 32.0 °F 92% 29.62 in 3.0 mi East 16.1 mph - N/A   Overcast
12:19 PM 34.0 °F 25.0 °F 32.0 °F 92% 29.58 in 2.5 mi East 12.7 mph - 0.00 in   Overcast
12:53 PM 34.0 °F 24.6 °F 32.0 °F 92% 29.57 in 1.5 mi East 13.8 mph 19.6 mph 0.04 in Rain Rain
1:20 PM 34.0 °F 24.2 °F 32.0 °F 92% 29.51 in 1.0 mi East 15.0 mph - 0.06 in Rain Light Rain
1:53 PM 34.0 °F 23.4 °F 33.1 °F 96% 29.47 in 1.0 mi East 17.3 mph 25.3 mph 0.08 in Rain Light Rain
2:03 PM 34.0 °F 23.0 °F 33.1 °F 96% 29.46 in 1.2 mi East 18.4 mph - 0.00 in   Overcast
2:53 PM 34.0 °F 23.0 °F 33.1 °F 96% 29.44 in 1.5 mi ESE 18.4 mph - 0.00 in   Overcast
3:36 PM 34.0 °F 23.4 °F 33.1 °F 96% 29.40 in 0.8 mi ESE 17.3 mph - 0.00 in Rain Light Rain
3:48 PM 33.8 °F 22.5 °F 33.8 °F 100% 29.38 in 0.8 mi ESE 19.6 mph - 0.03 in Rain , Thunderstorm Rain
3:53 PM 35.1 °F 24.8 °F 33.1 °F 92% 29.39 in 0.8 mi ESE 17.3 mph 27.6 mph 0.03 in Rain , Thunderstorm Light Rain
4:03 PM 34.0 °F 23.4 °F 33.1 °F 96% 29.36 in 0.8 mi ESE 17.3 mph 25.3 mph 0.00 in Rain Light Rain
4:53 PM 35.1 °F 23.0 °F 34.0 °F 96% 29.29 in 0.8 mi ESE 24.2 mph 31.1 mph 0.02 in Rain Light Rain
5:33 PM 36.0 °F 25.3 °F 35.1 °F 97% 29.27 in 1.0 mi ESE 19.6 mph - 0.00 in Rain Light Rain
5:40 PM 36.0 °F 25.6 °F 35.1 °F 97% 29.26 in 0.8 mi ESE 18.4 mph 26.5 mph 0.00 in Rain Light Rain
5:49 PM 35.6 °F 26.6 °F 35.6 °F 100% 29.27 in 0.8 mi SE 13.8 mph - 0.02 in Rain , Thunderstorm Rain
5:53 PM 36.0 °F 27.1 °F 36.0 °F 100% 29.28 in 0.8 mi SE 13.8 mph - 0.06 in Rain , Thunderstorm Heavy Rain
6:02 PM 36.0 °F 27.5 °F 36.0 °F 100% 29.26 in 1.0 mi SE 12.7 mph - 0.03 in Rain Rain
6:13 PM 37.0 °F 28.5 °F 36.0 °F 96% 29.24 in 0.5 mi SE 13.8 mph - 0.03 in Fog , Rain Light Rain
6:53 PM 37.9 °F 29.2 °F 37.9 °F 100% 29.23 in 0.2 mi SSE 15.0 mph - 0.04 in Fog Fog
7:53 PM 42.1 °F 34.5 °F 41.0 °F 96% 29.20 in 3.0 mi SW 15.0 mph - N/A   Overcast
8:01 PM 42.1 °F 33.3 °F 42.1 °F 100% 29.18 in 6.0 mi SSW 19.6 mph 29.9 mph N/A   Overcast
8:13 PM 41.0 °F 32.2 °F 39.9 °F 96% 29.19 in 10.0 mi SW 18.4 mph 29.9 mph N/A   Overcast
8:53 PM 37.0 °F 25.4 °F 35.1 °F 93% 29.24 in 10.0 mi SW 25.3 mph 41.4 mph N/A   Overcast
9:53 PM 37.0 °F 26.7 °F 30.9 °F 79% 29.24 in 10.0 mi SW 19.6 mph 36.8 mph N/A   Overcast
10:53 PM 36.0 °F 24.2 °F 30.0 °F 79% 29.26 in 10.0 mi SW 24.2 mph 38.0 mph N/A   Overcast
11:53 PM 36.0 °F 22.8 °F 30.0 °F 79% 29.24 in 10.0 mi SW 31.1 mph 47.2 mph N/A   Overcast